{"data":{"norad_id":54085,"epoch":"2026-09-20T22:00:03.000096Z","epoch_age_seconds":53148,"freshness":"FRESH","line1":"1 54085U 22136AL  26263.91670139  .00020681  00000+0  65099-3 0  9999","line2":"2 54085  53.1601 175.3800 0001359 108.8917 142.7997 15.32925709  5755","mean_motion":15.32925709,"eccentricity":0.0001359,"inclination_deg":53.1601,"raan_deg":175.38,"arg_perigee_deg":108.8917,"mean_anomaly_deg":142.7997,"bstar":0.00065099,"rev_number":575,"period_min":93.938016144264,"perigee_km":466.15838912252,"apogee_km":468.01892145563,"semimajor_km":6845.2256552891,"source":"CELESTRAK","updated_at":"2026-09-21T09:00:33.081988Z"}}